Leuven Template:n sääsivut:

Template documentation
and downloads

And another site



Tuuli Alkaa: 21-10-2018 23:00 Loppuu: 22-10-2018 17:00 varoitus: Tuuli Taso: Keltainen info button

Select another period ( hide this area )

Yksiköt Aika Custom range Directly to
Metriset Englantilaiset Molemmat
Päivittäin Viikoittain Kuukausittain Vuosittain
use both date-selectors for a custom range
previous Päivä
With this date

WeatherUnderground graphs for this period ( click here )


Päivittäin yhteenveto Sunnuntai 21 Lokakuu 2018
Aika Temp. ( °C ) Dew pt. ( °C ) Tuuli ( km/h ) Alkaa Puuska ( km/h ) Ilmanpaine ( hPa ) Humid.( % ) Rainrate ( cm ) Aurinkoenergia ( W/m2 )
Ylin4,9 4,4 0,0 ( 0/0 ) 0,0 1022,2 97 - 0
Keskiarvo2,9 2,4 0,0 Tyyntä #35/35 0,0 1021,9 96 - NAN #0/35
Alin0,9 0,5 -   0,0 1021,7 96 -  
Päivittäin Tabular details for Sunnuntai 21 Lokakuu 2018
Aika Temp. ( °C ) Dew pt. ( °C ) Tuuli ( km/h ) Alkaa Puuska ( km/h ) Ilmanpaine ( hPa ) Humid.( % ) Rainrate ( cm ) Aurinkoenergia ( W/m2 )
00:03 4,9 4,4   Tyyntä   1022,1 97 - -
00:08 4,8 4,4   Tyyntä   1022,1 97 - -
00:13 4,8 4,3   Tyyntä   1022,1 97 - -
00:18 4,7 4,3   Tyyntä   1022,0 97 - -
00:23 4,7 4,2   Tyyntä   1022,0 97 - -
00:28 4,6 4,2   Tyyntä   1021,9 97 - -
00:33 4,5 4,1   Tyyntä   1021,8 97 - -
00:38 4,4 4,0   Tyyntä   1021,8 97 - -
00:43 4,3 3,9   Tyyntä   1021,7 97 - -
00:49 4,2 3,7   Tyyntä   1021,8 97 - -
00:53 4,0 3,6   Tyyntä   1021,8 97 - -
00:58 3,8 3,3   Tyyntä   1021,9 96 - -
01:03 3,6 3,1   Tyyntä   1021,9 96 - -
01:08 3,4 2,8   Tyyntä   1021,9 96 - -
01:14 3,3 2,7   Tyyntä   1021,9 96 - -
01:18 3,2 2,6   Tyyntä   1021,9 96 - -
01:24 3,1 2,5   Tyyntä   1021,9 96 - -
01:29 2,8 2,2   Tyyntä   1021,9 96 - -
01:33 2,6 2,1   Tyyntä   1021,9 96 - -
01:39 2,4 1,9   Tyyntä   1022,0 96 - -
01:44 2,3 1,7   Tyyntä   1021,9 96 - -
01:49 2,2 1,6   Tyyntä   1022,0 96 - -
01:54 2,0 1,4   Tyyntä   1022,0 96 - -
01:58 1,9 1,4   Tyyntä   1021,9 96 - -
02:04 1,8 1,2   Tyyntä   1021,8 96 - -
02:09 1,7 1,1   Tyyntä   1021,9 96 - -
02:13 1,6 1,0   Tyyntä   1021,8 96 - -
02:18 1,4 0,9   Tyyntä   1021,9 96 - -
02:23 1,4 0,8   Tyyntä   1021,9 96 - -
02:28 1,3 0,7   Tyyntä   1022,0 96 - -
02:33 1,2 0,6   Tyyntä   1022,1 96 - -
02:38 1,1 0,6   Tyyntä   1022,1 96 - -
02:43 1,1 0,5   Tyyntä   1022,1 96 - -
02:49 0,9 0,5   Tyyntä   1022,2 97 - -
02:53 0,9 0,5   Tyyntä   1022,2 97 - -
Päivittäin yhteenveto Sunnuntai 21 Lokakuu 2018
Aika Temp. ( °C ) Dew pt. ( °C ) Tuuli ( km/h ) Alkaa Puuska ( km/h ) Ilmanpaine ( hPa ) Humid.( % ) Rainrate ( cm ) Aurinkoenergia ( W/m2 )
Ylin4,9 4,4 0,0 ( 0/0 ) 0,0 1022,2 97 - 0
Keskiarvo2,9 2,4 0,0 Tyyntä #35/35 0,0 1021,9 96 - NAN #0/35
Alin0,9 0,5 -   0,0 1021,7 96 -  
Päivittäin Tabular details for Sunnuntai 21 Lokakuu 2018
Aika Temp. ( °C ) Dew pt. ( °C ) Tuuli ( km/h ) Alkaa Puuska ( km/h ) Ilmanpaine ( hPa ) Humid.( % ) Rainrate ( cm ) Aurinkoenergia ( W/m2 )
00:03 4,9 4,4   Tyyntä   1022,1 97 - -
00:08 4,8 4,4   Tyyntä   1022,1 97 - -
00:13 4,8 4,3   Tyyntä   1022,1 97 - -
00:18 4,7 4,3   Tyyntä   1022,0 97 - -
00:23 4,7 4,2   Tyyntä   1022,0 97 - -
00:28 4,6 4,2   Tyyntä   1021,9 97 - -
00:33 4,5 4,1   Tyyntä   1021,8 97 - -
00:38 4,4 4,0   Tyyntä   1021,8 97 - -
00:43 4,3 3,9   Tyyntä   1021,7 97 - -
00:49 4,2 3,7   Tyyntä   1021,8 97 - -
00:53 4,0 3,6   Tyyntä   1021,8 97 - -
00:58 3,8 3,3   Tyyntä   1021,9 96 - -
01:03 3,6 3,1   Tyyntä   1021,9 96 - -
01:08 3,4 2,8   Tyyntä   1021,9 96 - -
01:14 3,3 2,7   Tyyntä   1021,9 96 - -
01:18 3,2 2,6   Tyyntä   1021,9 96 - -
01:24 3,1 2,5   Tyyntä   1021,9 96 - -
01:29 2,8 2,2   Tyyntä   1021,9 96 - -
01:33 2,6 2,1   Tyyntä   1021,9 96 - -
01:39 2,4 1,9   Tyyntä   1022,0 96 - -
01:44 2,3 1,7   Tyyntä   1021,9 96 - -
01:49 2,2 1,6   Tyyntä   1022,0 96 - -
01:54 2,0 1,4   Tyyntä   1022,0 96 - -
01:58 1,9 1,4   Tyyntä   1021,9 96 - -
02:04 1,8 1,2   Tyyntä   1021,8 96 - -
02:09 1,7 1,1   Tyyntä   1021,9 96 - -
02:13 1,6 1,0   Tyyntä   1021,8 96 - -
02:18 1,4 0,9   Tyyntä   1021,9 96 - -
02:23 1,4 0,8   Tyyntä   1021,9 96 - -
02:28 1,3 0,7   Tyyntä   1022,0 96 - -
02:33 1,2 0,6   Tyyntä   1022,1 96 - -
02:38 1,1 0,6   Tyyntä   1022,1 96 - -
02:43 1,1 0,5   Tyyntä   1022,1 96 - -
02:49 0,9 0,5   Tyyntä   1022,2 97 - -
02:53 0,9 0,5   Tyyntä   1022,2 97 - -

Download your copy of this data-set  here

Our weather-data as stored at Weather Underground. Alkuperäinen skripti Jim McMurry. Sovitettu myös templatelle Leuven-Template.eu